sat.trackr.live / text

‹ back to catalog

ION SCV-019 (ASTOUNDIN*)

NORAD 68435 · 2026-067V

PAYLOAD ACTIVE UNKNOWN

§ Identity

Operator
Country
IT
Launch date
2026-03-30
Launch site
AFWTR
Launch vehicle
Mass (kg)
RCS (m²)

External: N2YO · Heavens-Above · Gunter

§ Orbital elements

Epoch: 2026-09-20T04:35:58.470144Z

Period
94.72 min
Inclination
97.4657°
Eccentricity
0.0011341
Mean motion
15.20235447 rev/d
Perigee alt
497.3 km
Apogee alt
512.9 km
Semi-major
6,883.3 km
B*
1.2911e-4
RAAN
220.6206°
Arg perigee
72.2851°
Mean anomaly
287.9621°
Rev number
2,637

§ Raw data

ION SCV-019 (ASTOUNDIN*)1 68435U 26067V   26263.19164896  .00002734  00000+0  12911-3 0  99922 68435  97.4657 220.6206 0011341  72.2851 287.9621 15.20235447 26375

JSON: /api/v1/satellites/68435 · /tle

For live sub-satellite position, see the globe view (requires WebGL).

§ Visibility from observer

Set your observer location to see the next 7 days of passes ≥ 10°. The values pass through the URL so the page stays shareable.

No JS? Fill the form by hand. The geolocation button needs JavaScript.

§ Radio — SatNOGS DB

ModeDescriptionDownlinkUplink
FM Mode S - Transmitter 2.248 GHz
FSK AX.100 Mode 5 Mode U - Transmitter 401.415 MHz

2 transmitters · refreshed weekly from db.satnogs.org